Weather History for Manteo, NC

Change the Weather History Date:

Sunday, September 30, 2012

  Actual Average Record
Temperature  
Mean Temperature 68 °F -  
Max Temperature 73 °F 73 °F 90 °F (1986)
Min Temperature 62 °F 63 °F 46 °F (1970)
Cooling Degree Days 2    
Growing Degree Days 18 (Base 50)    
Moisture  
Dew Point 56 °F    
Average Humidity 71    
Maximum Humidity 94    
Minimum Humidity 53    
Precipitation  
Precipitation 0.00 in - - ()
Sea Level Pressure  
Sea Level Pressure 29.89 in    
Wind  
Wind Speed 7 mph (NE)    
Max Wind Speed 14 mph    
Max Gust Speed 17 mph    
Visibility 10 miles    
Events Rain    
Averages and records for this station are not official NWS values.
T = Trace of Precipitation, MM = Missing Value Source: NWS Daily Summary

Daily Weather History Graph

Daily Weather History Graph

Search for Another Location

Airport:

Trip Planner

Search our weather history database for the weather conditions in past years. The results will help you decide how hot, cold, wet, or windy it might be!

Date:

Astronomy

Sep. 30, 2012 Rise Set
Actual Time 6:57 AM EDT 6:47 PM EDT
Civil Twilight 6:31 AM EDT 7:12 PM EDT
Nautical Twilight 6:02 AM EDT 7:42 PM EDT
Astronomical Twilight 5:32 AM EDT 8:12 PM EDT
Moon 6:53 PM EDT (9/30) 7:23 AM EDT (9/30)
Length of Visible Light 12h 40m
Length of Day
11h 49m
Full, 100% of the Moon is Illuminated
Sep 30
Full
Oct 8
Last Quarter
Oct 15
New
Oct 21
First Quarter
Oct 29
Full

Hourly Weather History & Observations

Time (EDT) Temp. Dew Point Humidity Pressure Visibility Wind Dir Wind Speed Gust Speed Precip Events Conditions
12:15 AM 64.4 °F 60.8 °F 88% 29.88 in 10.0 mi East 6.9 mph - N/A   Unknown
12:35 AM 64.4 °F 60.8 °F 88% 29.88 in 10.0 mi NE 6.9 mph - N/A   Unknown
12:55 AM 64.4 °F 60.8 °F 88% 29.88 in 10.0 mi NNE 8.1 mph - N/A   Unknown
1:15 AM 64.4 °F 60.8 °F 88% 29.89 in 10.0 mi NNE 10.4 mph - N/A   Unknown
1:55 AM 62.6 °F 60.8 °F 94% 29.88 in 7.0 mi NNE 11.5 mph 16.1 mph N/A Rain Light Rain
2:15 AM 62.6 °F 59.0 °F 88% 29.88 in 7.0 mi NNE 10.4 mph 17.3 mph N/A Rain Light Rain
2:35 AM 62.6 °F 59.0 °F 88% 29.88 in 10.0 mi NNE 10.4 mph 17.3 mph N/A Rain Rain
2:55 AM 62.6 °F 59.0 °F 88% 29.88 in 10.0 mi NE 9.2 mph - N/A   Unknown
3:15 AM 62.6 °F 59.0 °F 88% 29.88 in 10.0 mi NNE 10.4 mph 16.1 mph N/A   Unknown
3:35 AM 62.6 °F 57.2 °F 82% 29.88 in 10.0 mi NNE 13.8 mph - N/A   Unknown
3:55 AM 62.6 °F 57.2 °F 82% 29.88 in 10.0 mi NNE 12.7 mph 16.1 mph N/A   Unknown
4:15 AM 62.6 °F 57.2 °F 82% 29.88 in 10.0 mi NE 10.4 mph - N/A   Unknown
4:35 AM 62.6 °F 57.2 °F 82% 29.88 in 10.0 mi NNE 10.4 mph - N/A   Unknown
4:55 AM 62.6 °F 57.2 °F 82% 29.88 in 10.0 mi NNE 8.1 mph - N/A   Unknown
5:15 AM 62.6 °F 57.2 °F 82% 29.89 in 10.0 mi NNE 6.9 mph - N/A   Unknown
5:35 AM 62.6 °F 57.2 °F 82% 29.89 in 10.0 mi NNE 6.9 mph - N/A   Unknown
5:55 AM 62.6 °F 55.4 °F 77% 29.88 in 10.0 mi NNE 8.1 mph - N/A   Unknown
6:15 AM 62.6 °F 55.4 °F 77% 29.88 in 10.0 mi NNE 6.9 mph - N/A   Unknown
6:35 AM 62.6 °F 55.4 °F 77% 29.88 in 10.0 mi NNE 6.9 mph - N/A   Unknown
6:55 AM 62.6 °F 53.6 °F 72% 29.88 in 10.0 mi NNE 6.9 mph - N/A   Unknown
7:15 AM 62.6 °F 53.6 °F 72% 29.89 in 10.0 mi NNE 5.8 mph - N/A   Unknown
7:35 AM 64.4 °F 53.6 °F 68% 29.89 in 10.0 mi NNE 6.9 mph - N/A   Unknown
7:55 AM 64.4 °F 53.6 °F 68% 29.89 in 10.0 mi NE 6.9 mph - N/A   Unknown
8:15 AM 64.4 °F 53.6 °F 68% 29.89 in 10.0 mi NE 5.8 mph - N/A   Unknown
8:35 AM 68.0 °F 53.6 °F 60% 29.89 in 10.0 mi NNE 6.9 mph - N/A   Unknown
8:55 AM 68.0 °F 53.6 °F 60% 29.89 in 10.0 mi NE 8.1 mph - N/A   Unknown
9:15 AM 68.0 °F 53.6 °F 60% 29.89 in 10.0 mi NNE 6.9 mph - N/A   Unknown
9:35 AM 69.8 °F 53.6 °F 56% 29.90 in 10.0 mi NE 8.1 mph - N/A   Unknown
9:55 AM 69.8 °F 53.6 °F 56% 29.91 in 10.0 mi NE 9.2 mph - N/A   Unknown
10:15 AM 69.8 °F 53.6 °F 56% 29.92 in 10.0 mi NNE 8.1 mph - N/A   Unknown
10:35 AM 71.6 °F 53.6 °F 53% 29.92 in 10.0 mi ENE 9.2 mph - N/A   Unknown
10:55 AM 69.8 °F 53.6 °F 56% 29.92 in 10.0 mi ENE 8.1 mph - N/A   Unknown
11:15 AM 71.6 °F 53.6 °F 53% 29.91 in 10.0 mi East 4.6 mph - N/A   Unknown
11:35 AM 69.8 °F 55.4 °F 60% 29.91 in 10.0 mi NNE 5.8 mph - N/A   Unknown
11:55 AM 69.8 °F 53.6 °F 56% 29.91 in 10.0 mi NNE 3.5 mph - N/A   Unknown
12:15 PM 71.6 °F 55.4 °F 57% 29.91 in 10.0 mi NNE 5.8 mph - N/A   Unknown
12:35 PM 71.6 °F 53.6 °F 53% 29.91 in 10.0 mi ENE 3.5 mph - N/A   Unknown
12:55 PM 71.6 °F 53.6 °F 53% 29.90 in 10.0 mi East 5.8 mph - N/A   Unknown
1:15 PM 69.8 °F 53.6 °F 56% 29.90 in 10.0 mi East 6.9 mph - N/A   Unknown
1:35 PM 69.8 °F 53.6 °F 56% 29.89 in 10.0 mi Calm Calm - N/A   Unknown
1:55 PM 71.6 °F 55.4 °F 57% 29.88 in 10.0 mi ENE 5.8 mph - N/A   Unknown
2:15 PM 71.6 °F 55.4 °F 57% 29.88 in 10.0 mi ENE 3.5 mph - N/A   Unknown
2:35 PM 73.4 °F 55.4 °F 53% 29.88 in 10.0 mi ENE 8.1 mph - N/A   Unknown
2:55 PM 71.6 °F 55.4 °F 57% 29.88 in 10.0 mi NE 5.8 mph - N/A   Unknown
3:15 PM 69.8 °F 55.4 °F 60% 29.87 in 10.0 mi ENE 4.6 mph - N/A   Unknown
3:35 PM 69.8 °F 55.4 °F 60% 29.87 in 10.0 mi ENE 6.9 mph - N/A   Unknown
3:55 PM 71.6 °F 55.4 °F 57% 29.87 in 10.0 mi East 5.8 mph - N/A   Unknown
4:15 PM 69.8 °F 55.4 °F 60% 29.87 in 10.0 mi ENE 3.5 mph - N/A   Unknown
4:35 PM 69.8 °F 55.4 °F 60% 29.86 in 10.0 mi ESE 3.5 mph - N/A   Unknown
4:55 PM 69.8 °F 55.4 °F 60% 29.86 in 10.0 mi ENE 5.8 mph - N/A   Unknown
5:15 PM 69.8 °F 55.4 °F 60% 29.86 in 10.0 mi ENE 4.6 mph - N/A   Unknown
5:35 PM 69.8 °F 55.4 °F 60% 29.86 in 10.0 mi ENE 4.6 mph - N/A   Unknown
5:55 PM 69.8 °F 55.4 °F 60% 29.86 in 10.0 mi East 3.5 mph - N/A   Unknown
6:15 PM 68.0 °F 55.4 °F 64% 29.87 in 10.0 mi East 4.6 mph - N/A   Unknown
6:35 PM 68.0 °F 55.4 °F 64% 29.87 in 10.0 mi East 3.5 mph - N/A   Unknown
6:55 PM 68.0 °F 57.2 °F 68% 29.88 in 10.0 mi Calm Calm - N/A   Unknown
7:15 PM 64.4 °F 59.0 °F 83% 29.88 in 10.0 mi Calm Calm - N/A   Unknown
7:35 PM 64.4 °F 57.2 °F 77% 29.89 in 10.0 mi Calm Calm - N/A   Unknown
7:55 PM 64.4 °F 59.0 °F 83% 29.90 in 10.0 mi Calm Calm - N/A   Unknown
8:15 PM 64.4 °F 59.0 °F 83% 29.90 in 10.0 mi Calm Calm - N/A   Unknown
8:35 PM 64.4 °F 59.0 °F 83% 29.91 in 10.0 mi Calm Calm - N/A   Unknown
8:55 PM 64.4 °F 59.0 °F 83% 29.90 in 10.0 mi Calm Calm - N/A   Unknown
9:15 PM 64.4 °F 59.0 °F 83% 29.91 in 10.0 mi Calm Calm - N/A   Unknown
9:35 PM 64.4 °F 59.0 °F 83% 29.91 in 10.0 mi Calm Calm - N/A   Unknown
9:55 PM 64.4 °F 59.0 °F 83% 29.92 in 10.0 mi Calm Calm - N/A   Unknown
10:15 PM 64.4 °F 59.0 °F 83% 29.91 in 10.0 mi Calm Calm - N/A   Unknown
10:35 PM 64.4 °F 59.0 °F 83% 29.91 in 10.0 mi Calm Calm - N/A   Unknown
10:55 PM 62.6 °F 59.0 °F 88% 29.90 in 10.0 mi Calm Calm - N/A   Unknown
11:15 PM 62.6 °F 59.0 °F 88% 29.91 in 10.0 mi Calm Calm - N/A   Unknown
11:35 PM 64.4 °F 59.0 °F 83% 29.91 in 10.0 mi Calm Calm - N/A   Unknown
11:55 PM 64.4 °F 59.0 °F 83% 29.90 in 10.0 mi Calm Calm - N/A   Unknown